WEATHER DATA

YESTERDAY
Time Temp. Dewp. Hum. Wind dir Wind speed Wind gust Bar. 1h Prec. 24h Prec.
00:06 22 14.6 63 0 0 1010.3 0.0000 0.0000
00:16 21.8 14.7 64 0 0 1010 0.0000 0.0000
00:26 21.7 14.6 64 0 0 1010.2 0.0000 0.0000
00:36 21.5 14.4 64 0 0 1010.3 0.0000 0.0000
00:46 21.4 14.6 65 0 0 1010.2 0.0000 0.0000
00:56 21.3 14.5 65 0 0 1010.2 0.0000 0.0000
01:06 21.1 14.3 65 0 0 1010.2 0.0000 0.0000
01:16 21 14.2 65 0 0 1010.1 0.0000 0.0000
01:26 20.9 14.3 66 0 0 1010 0.0000 0.0000
01:36 20.8 14.2 66 0 0 1010 0.0000 0.0000
01:47 20.7 14.4 67 0 0 1009.9 0.0000 0.0000
01:56 20.6 14.3 67 0 0 1009.9 0.0000 0.0000
02:06 20.5 14.2 67 0 0 1009.5 0.0000 0.0000
02:17 20.4 14.1 67 0 0 1009.9 0.0000 0.0000
02:27 20.3 14 67 0 0 1009.9 0.0000 0.0000
02:36 20.2 14.1 68 0 0 1009.6 0.0000 0.0000
02:47 20.1 14 68 0 0 1009.6 0.0000 0.0000
02:57 20.1 14 68 0 0 1009.6 0.0000 0.0000
03:07 20 13.9 68 0 0 1009.6 0.0000 0.0000
03:16 20 13.9 68 0 0 1009.5 0.0000 0.0000
03:27 19.9 13.8 68 0 0 1009.7 0.0000 0.0000
03:37 19.8 13.7 68 0 0 1009.6 0.0000 0.0000
03:47 19.8 14 69 0 0 1009.9 0.0000 0.0000
03:57 19.7 13.9 69 0 0 1009.7 0.0000 0.0000
04:07 19.7 13.9 69 0 0 1009.7 0.0000 0.0000
04:17 19.6 13.8 69 0 0 1009.6 0.0000 0.0000
04:27 19.6 13.8 69 0 0 1009.5 0.0000 0.0000
04:38 19.5 13.7 69 0 0 1009.5 0.0000 0.0000
04:47 19.5 13.7 69 0 0 1009.5 0.0000 0.0000
04:57 19.4 13.6 69 0 0 1009.4 0.0000 0.0000
05:08 19.4 13.6 69 0 0 1009.5 0.0000 0.0000
05:18 19.3 13.7 70 0 0 1009.5 0.0000 0.0000
05:27 19.3 13.7 70 0 0 1009.5 0.0000 0.0000
05:37 19.2 13.6 70 0 0 1009.6 0.0000 0.0000
05:48 19.2 13.6 70 0 0 1009.6 0.0000 0.0000
05:58 19.2 13.6 70 0 0 1009.5 0.0000 0.0000
06:08 19.1 13.5 70 0 0 1009.7 0.0000 0.0000
06:18 19.1 13.5 70 0 0 1009.6 0.0000 0.0000
06:28 19.1 13.5 70 0 0 1009.6 0.0000 0.0000
06:38 19.1 13.5 70 0 0 1009.6 0.0000 0.0000
06:48 19.1 13.5 70 0 0 1009.6 0.0000 0.0000
06:58 19.1 13.5 70 0 0 1009.6 0.0000 0.0000
07:08 19.2 13.8 71 0 0 1009.9 0.0000 0.0000
07:18 19.2 13.8 71 0 0 1010.1 0.0000 0.0000
07:29 19.3 13.9 71 0 0 1009.7 0.0000 0.0000
07:39 19.3 13.9 71 0 0 1009.7 0.0000 0.0000
07:48 19.4 14 71 0 0 1009.9 0.0000 0.0000
07:58 19.4 14.2 72 0 0 1009.7 0.0000 0.0000
08:09 19.6 14.4 72 0 0 1009.7 0.0000 0.0000
08:19 19.8 14.4 71 0 0 1010.1 0.0000 0.0000
08:28 20 14.6 71 0 0 1010 0.0000 0.0000
08:39 20.3 14.9 71 0 0 1010 0.0000 0.0000
08:49 20.7 15.3 71 0 0 1010.3 0.0000 0.0000
08:59 21 15.3 70 0 0 1010.1 0.0000 0.0000
09:10 21.3 15.8 71 0 0 1010.2 0.0000 0.0000
09:20 21.5 16.2 72 0 0 1010.3 0.0000 0.0000
09:31 21.8 16.3 71 0 0 1010.3 0.0000 0.0000
09:41 22.2 16.2 69 0 0 1010.3 0.0000 0.0000
09:50 22.5 16.1 67 0 0 1010.3 0.0000 0.0000
09:56 22.7 16.3 67 0 0 1010.4 0.0000 0.0000
10:06 23 16.1 65 0 0 1010.4 0.0000 0.0000
10:16 23.4 16.2 64 0 0 1010.3 0.0000 0.0000
10:29 24.1 16.6 63 0 0 1010.2 0.0000 0.0000
10:40 24.4 16.4 61 0 0 1010.2 0.0000 0.0000
10:50 24.6 16.3 60 0 0 1010.4 0.0000 0.0000
11:00 24.7 16.7 61 0 0 1010.3 0.0000 0.0000
11:11 24.8 17 62 0 0 1010.5 0.0000 0.0000
11:20 24.8 16.8 61 0 0 1010.8 0.0000 0.0000
11:30 24.8 16.2 59 0 0 1010.8 0.0000 0.0000
11:41 24.8 16 58 0 0 1011 0.0000 0.0000
11:51 24.9 16.1 58 0 0 1010.9 0.0000 0.0000
12:01 24.9 16.1 58 0 0 1010.9 0.0000 0.0000
12:06 25 15.9 57 0 0 1011 0.0000 0.0000
12:17 25.1 16 57 0 0 1010.9 0.0000 0.0000
12:27 25.2 16.1 57 0 0 1010.7 0.0000 0.0000
12:37 25.3 15.9 56 0 0 1010.4 0.0000 0.0000
12:47 25.3 16.2 57 0 0 1010.9 0.0000 0.0000
12:58 25.4 16.3 57 0 0 1011.1 0.0000 0.0000
13:07 25.5 16.4 57 0 0 1011.2 0.0000 0.0000
13:17 25.5 16.4 57 0 0 1011.3 0.0000 0.0000
13:27 25.5 16.4 57 0 0 1011.4 0.0000 0.0000
13:38 25.5 16.6 58 0 0 1011.3 0.0000 0.0000
13:48 25.5 16.6 58 0 0 1011.3 0.0000 0.0000
13:57 25.5 16.6 58 0 0 1011.1 0.0000 0.0000
14:08 25.5 16.9 59 0 0 1011.3 0.0000 0.0000
14:17 25.5 16.9 59 0 0 1011.4 0.0000 0.0000
14:23 25.6 17 59 0 0 1011.3 0.0000 0.0000
14:33 25.7 17.1 59 0 0 1011.7 0.0000 0.0000
14:43 25.7 16.5 57 0 0 1011.8 0.0000 0.0000
14:54 25.8 16.4 56 0 0 1011.7 0.0000 0.0000
15:04 26.2 16.7 56 0 0 1011.5 0.0000 0.0000
15:14 26.7 16.9 55 0 0 1011.3 0.0000 0.0000
15:24 27 16.6 53 0 0 1011.2 0.0000 0.0000
15:40 27 16.6 53 0 0 1010.9 0.0000 0.0000
15:49 27.1 16.7 53 0 0 1010.8 0.0000 0.0000
16:00 27.2 16.5 52 0 0 1010.6 0.0000 0.0000
16:10 27.2 16.8 53 0 0 1010.5 0.0000 0.0000
16:20 27.1 16.4 52 0 0 1010.6 0.0000 0.0000
16:29 27.1 16.7 53 0 0 1010.4 0.0000 0.0000
16:40 27.2 16.8 53 0 0 1010.4 0.0000 0.0000
16:49 27.2 16.8 53 0 0 1010.3 0.0000 0.0000
17:00 27.4 16.7 52 0 0 1010.4 0.0000 0.0000
17:10 27.4 16.7 52 0 0 1010.2 0.0000 0.0000
17:20 27.4 16.7 52 0 0 1010.2 0.0000 0.0000
17:30 27.5 16.8 52 0 0 1010.2 0.0000 0.0000
17:40 27.6 16.6 51 0 0 1010.3 0.0000 0.0000
17:51 27.7 16.7 51 0 0 1010.2 0.0000 0.0000
17:59 27.8 16.7 51 0 0 1010 0.0000 0.0000
18:10 27.7 16.3 50 0 0 1010 0.0000 0.0000
18:21 27.7 16.7 51 0 0 1010 0.0000 0.0000
18:31 27.7 16.7 51 0 0 1010 0.0000 0.0000
18:41 27.7 16.3 50 0 0 1010 0.0000 0.0000
18:51 27.6 16.6 51 0 0 1010 0.0000 0.0000
19:01 27.5 17.1 53 0 0 1010.1 0.0000 0.0000
19:12 27.3 17.2 54 0 0 1009.9 0.0000 0.0000
19:21 27.1 17.3 55 0 0 1009.9 0.0000 0.0000
19:30 26.9 17.1 55 0 0 1009.9 0.0000 0.0000
19:42 26.7 16.9 55 0 0 1009.7 0.0000 0.0000
19:52 26.5 17 56 0 0 1009.7 0.0000 0.0000
19:57 26.4 16.9 56 0 0 1009.9 0.0000 0.0000
20:12 26.1 16.9 57 0 0 1009.6 0.0000 0.0000
20:22 25.8 16.6 57 0 0 1009.9 0.0000 0.0000
20:32 25.5 16.4 57 0 0 1009.9 0.0000 0.0000
20:42 25.3 16.2 57 0 0 1009.5 0.0000 0.0000
20:52 25.1 16 57 0 0 1009.6 0.0000 0.0000
21:02 24.8 16 58 0 0 1009.9 0.0000 0.0000
21:12 24.5 15.7 58 0 0 1010.1 0.0000 0.0000
21:23 24.3 15.8 59 0 0 1010.3 0.0000 0.0000
21:32 24.1 15.9 60 0 0 1010.4 0.0000 0.0000
21:42 23.8 15.8 61 0 0 1010.5 0.0000 0.0000
21:53 23.6 15.6 61 0 0 1010.4 0.0000 0.0000
22:03 23.4 15.7 62 0 0 1010.3 0.0000 0.0000
22:18 23.1 15.7 63 0 0 1010.2 0.0000 0.0000
22:28 23 15.6 63 0 0 1010.3 0.0000 0.0000
22:38 22.7 15.5 64 0 0 1010.3 0.0000 0.0000
22:48 22.6 15.5 64 0 0 1010.3 0.0000 0.0000
22:58 22.4 15.3 64 0 0 1010.3 0.0000 0.0000
23:09 22.3 15.4 65 0 0 1010.4 0.0000 0.0000
23:18 22.1 15.2 65 0 0 1010.5 0.0000 0.0000
23:28 22 15.1 65 0 0 1010.6 0.0000 0.0000
23:38 21.8 15.2 66 0 0 1010.7 0.0000 0.0000
23:49 21.7 15.1 66 0 0 1010.6 0.0000 0.0000
23:58 21.6 15 66 0 0 1010.8 0.0000

DAY STATISTIC

2022-08-17
TEMPERATURE
AVERAGE
23.2
HIGH
27.8
17:59
LOW
19.1
06:08
PRESSURE
AVERAGE
1010.2
HIGH
1011.8
14:43
LOW
1009.4
04:57
DEWPOINT
AVERAGE
15.5
HIGH
17.3
19:21
LOW
13.5
06:08
HUMIDITY
AVERAGE
62
HIGH
72
07:58
LOW
50
18:10
WIND SPEED
AVERAGE
0.0
HIGH
0.0
22:39
WIND GUST
AVERAGE
0.0
HIGH
0.0
22:39
WIND DIRECTION
PREVAILING
%
PRECIPITATION
RAIN HOUR
0.0
RAIN DAY
0.0
TEMPERATURE (°C)
LOW
19.1
HIGH
27.8
AVERAGE
23.2
PRESSURE (hpa)
LOW
1009.4
HIGH
1011.8
AVERAGE
1010.2
DEVICE